Showing default

BD-20, 40938

Orbit data source: Space-Track

BD-20, 40938 is a payload satellite owned by CNSA (CN) that was launched on Tue, 29 Sep 2015 UTC via a CHANG ZHENG 3B launch vehicle from the Xichang Space Center, China (XSC). Payload-class satellites include a variety of spacecraft equipped with specific instruments for various scientific and technological missions. These include communications satellites like Starlink; space stations such as the ISS; scientific satellites like the Hubble; Earth observation satellites from companies like Planet Labs, Umbra, and HawkEye 360; GPS; miniature CubeSats for education and research; and military/defense satellites.

Not visible in the next 10 days
Identifier
40938, 2015-053A
Orbit
Active
Country
Flag of CNCN / PRC
Related business
Manufacturer
CAST
Mission
Awaiting activation Defense Navigation
Bus & Motor
BD-3I, AKM?
Mass
~1,150 kg wet, ~1,150 kg dry
Launch date (UTC)
2015-09-29 (11 years ago)
Launch vehicle
CHANG ZHENG 3B
Launch site
Xichang Space Center, China (XSC)
Object type
Payload
Rocket body
Debris
Shape & HBR
Box + 2 Pan, 5.0 m
Radar Cross Section
9.494 m², Large (>1 m²)

Expand to show TLE details & history
Last TLE update: 3 days ago

TLE from 3 days ago
0 BD-20
1 40938U 15053A   26170.70984358 -.00000143  00000-0  00000-0 0  9997
2 40938  49.2167 258.7515 0065584 192.2245 167.5336  1.00258902 39371
Epoch: 2026-06-19T17:02Z
TLE epoch observation values (Epoch: 2026-06-19T17:02:10.485Z)
Latitude
-0.11482°
Longitude
95.18316°
Altitude
36,061.142 km
Speed
3.055 km/s
True Right ascension
17h 14m 38s
True Declination
0° 06' 53"
Sunlit
Object was in daylight at epoch
Visualization orbit readout
Latitude
Unknown
Longitude
Unknown
Altitude
Unknown
Speed
Unknown
Apparent Right ascension
Unknown
Apparent Declination
Unknown
Sunlit
N/A
Visualization observer readout
Local Sidereal Time
21:36:56
Azimuth
Unknown
Elevation
Unknown
Doppler factor
Unknown
Orbital elements
Apogee altitude
36,066.937 km
Perigee altitude
35,513.821 km
Semi-major axis
42,168.516 km
Eccentricity
0.00656
Inclination
49.2167°
RAAN
258.7515°
Arg. of periapsis
192.2245°
True anomaly
167.69454°
Mean anomaly
167.5336°
Eccentric anomaly
167.6142°
Mean motion
0.25065 °/min
Orbital period
1,436.29 mins
BSTAR
0
Loading maneuver chart data...
Computing Atmospheric mass density...
Loading historical data...
Loading historical data...
Loading historical data...
Loading historical data...
Loading historical data...
Loading historical data...
Loading historical data...
Other satellites on launch #53 in the year 2015 (2015-09-29 UTC)

Documentation

Showing up to 5 results
|